Location: Melbourne
(37.8120°S, 144.9677°E)
Time: 09:45:10
(UTC+11:00)

ISS - Visible Passes

Search period start: 22 October 2019 00:00
Search period end: 01 November 2019 00:00
Orbit: 411 x 421 km, 51.6° (Epoch: 21 October)

Date Brightness Start Highest point End Pass type
(mag) Time Alt. Az. Time Alt. Az. Time Alt. Az.
22 Oct -0.8 21:19:17 10° WSW 21:21:37 17° SSW 21:23:59 10° SSE visible
23 Oct -1.3 20:30:02 10° W 20:32:52 24° SSW 20:35:43 10° SSE visible
24 Oct -0.5 21:20:46 10° SSW 21:21:40 11° SSW 21:22:35 10° S visible
25 Oct -0.8 20:30:58 10° SW 20:32:47 14° SSW 20:34:36 10° SSE visible
28 Oct -0.4 22:57:16 10° SSW 22:57:43 12° SSW 22:57:43 12° SSW visible
29 Oct -1.1 22:09:00 10° SSW 22:10:53 14° SSE 22:10:53 14° SSE visible
30 Oct -0.9 21:20:56 10° S 21:21:59 11° SSE 21:23:02 10° SSE visible
30 Oct -0.5 22:56:14 10° SW 22:56:56 15° SSW 22:56:56 15° SSW visible
31 Oct -1.7 22:07:47 10° SSW 22:10:06 24° SSE 22:10:06 24° SSE visible
